Torna al catalogo

SCOUT G-1 R/B

AttivoPO
NORAD 17071·ROCKET BODY·🇺🇸 United States

Lanciato Nov 14, 1986 da Vandenberg Space Force Base

Loading…

Prossimi Passaggi (prossime 24 ore)

TLE

AggiornatoSource: Space-Track

Epoca: Sep 14, 2026, 11:59 UTC

1 17071U 86088B   26257.49979006  .00000096  00000-0  87625-4 0  9999
2 17071  89.6096 163.9266 0038469 350.4421   9.6008 13.75643506998007

Traccia SCOUT G-1 R/B in tempo reale con AllMySat

Download on the App Store